CW7443 Weather Reports


Display with metric or nautical units.
time (UTC)temp
F
wind
direction
speed
MPH
gust
MPH
rain 1hr
in
rain 24hr
in
rain mn
in
humidity
%
barometer
mb
20260507232326 54 51 0.0 4.0 0.00 0.00 0.00 48 1012.9
20260507231830 54 52 0.0 4.0 0.00 0.00 0.00 49 1012.9
20260507231336 55 53 1.0 4.0 0.00 0.00 0.00 48 1012.9
20260507230821 55 95 0.0 4.0 0.00 0.00 0.00 49 1012.9
20260507230329 55 157 0.0 4.0 0.00 0.00 0.00 49 1012.9
20260507225832 55 64 0.0 5.0 0.00 0.00 0.00 46 1013.0
20260507225341 55 76 1.0 5.0 0.00 0.00 0.00 44 1013.0
20260507224829 56 34 1.0 7.0 0.00 0.00 0.00 45 1013.0
20260507224333 56 40 0.0 7.0 0.00 0.00 0.00 47 1013.1
20260507223859 56 26 0.0 4.0 0.00 0.00 0.00 46 1013.1
20260507223322 56 26 1.0 4.0 0.00 0.00 0.00 41 1013.1
20260507222846 57 89 0.0 6.0 0.00 0.00 0.00 43 1013.0
20260507222330 57 89 0.0 6.0 0.00 0.00 0.00 44 1013.0
20260507221819 57 119 0.0 5.0 0.00 0.00 0.00 43 1013.0
20260507221344 57 54 0.0 7.0 0.00 0.00 0.00 48 1012.9
20260507220855 58 53 1.0 7.0 0.00 0.00 0.00 41 1012.9
20260507220318 58 36 1.0 7.0 0.00 0.00 0.00 42 1012.9
20260507215818 59 48 1.0 4.0 0.00 0.00 0.00 42 1012.9
20260507215330 58 223 1.0 6.0 0.00 0.00 0.00 44 1012.9
20260507214818 58 222 1.0 6.0 0.00 0.00 0.00 43 1012.9
20260507214321 58 107 1.0 4.0 0.00 0.00 0.00 43 1012.9
20260507213846 58 312 1.0 5.0 0.00 0.00 0.00 45 1012.9
20260507213330 58 29 0.0 5.0 0.00 0.00 0.00 47 1012.9
20260507212855 59 9 0.0 5.0 0.00 0.00 0.00 45 1012.8
20260507212321 58 43 2.0 6.0 0.00 0.00 0.00 43 1012.8
20260507211826 58 41 1.0 6.0 0.00 0.00 0.00 43 1012.8
20260507211327 58 42 1.0 7.0 0.00 0.00 0.00 45 1012.5
20260507210833 58 69 1.0 7.0 0.00 0.00 0.00 43 1012.5
20260507210321 58 15 2.0 9.0 0.00 0.00 0.00 44 1012.5
20260507205840 59 53 2.0 9.0 0.00 0.00 0.00 41 1012.5
20260507205324 59 49 1.0 9.0 0.00 0.00 0.00 45 1012.5
20260507204813 58 74 1.0 7.0 0.00 0.00 0.00 42 1012.5
20260507204319 58 70 2.0 7.0 0.00 0.00 0.00 43 1012.4
20260507203825 59 28 2.0 8.0 0.00 0.00 0.00 42 1012.4
20260507203350 59 203 0.0 5.0 0.00 0.00 0.00 46 1012.4
20260507202833 59 22 1.0 7.0 0.00 0.00 0.00 45 1012.5
20260507202338 58 22 1.0 8.0 0.00 0.00 0.00 41 1012.5
20260507201823 58 63 1.0 8.0 0.00 0.00 0.00 44 1012.5
20260507201326 58 122 2.0 9.0 0.00 0.00 0.00 44 1012.4
20260507200832 59 30 2.0 9.0 0.00 0.00 0.00 45 1012.4
20260507200315 59 109 1.0 6.0 0.00 0.00 0.00 51 1012.4
20260507195816 58 291 0.0 6.0 0.00 0.00 0.00 51 1012.5
20260507195324 59 294 1.0 7.0 0.00 0.00 0.00 47 1012.5
20260507194815 59 19 1.0 8.0 0.00 0.00 0.00 46 1012.5
20260507194320 59 46 1.0 8.0 0.00 0.00 0.00 47 1012.5
20260507193825 59 26 2.0 9.0 0.00 0.00 0.00 50 1012.5
20260507193350 59 327 1.0 7.0 0.00 0.00 0.00 49 1012.5
20260507192833 58 298 1.0 7.0 0.00 0.00 0.00 49 1012.8
20260507192319 58 76 3.0 7.0 0.00 0.00 0.00 47 1012.8
20260507191824 58 278 1.0 7.0 0.00 0.00 0.00 48 1012.8
20260507191320 58 66 3.0 7.0 0.00 0.00 0.00 49 1012.6
20260507190826 58 355 1.0 6.0 0.00 0.00 0.00 48 1012.6
20260507190351 59 108 0.0 7.0 0.00 0.00 0.00 53 1012.6
20260507185812 58 158 0.0 7.0 0.00 0.00 0.00 49 1012.7
20260507185324 59 155 2.0 7.0 0.00 0.00 0.00 46 1012.7
20260507184815 59 171 1.0 5.0 0.00 0.00 0.00 48 1012.7
20260507184320 58 178 1.0 6.0 0.00 0.00 0.00 48 1012.7
20260507183825 58 346 2.0 10.0 0.00 0.00 0.00 44 1012.7
20260507183329 58 171 3.0 10.0 0.00 0.00 0.00 49 1012.7
20260507182856 57 95 0.0 8.0 0.00 0.00 0.00 46 1012.6
20260507182318 57 159 1.0 8.0 0.00 0.00 0.00 46 1012.6
20260507181846 58 96 2.0 8.0 0.00 0.00 0.00 44 1012.6
20260507181326 58 9 2.0 7.0 0.00 0.00 0.00 47 1012.8
20260507180836 59 259 1.0 7.0 0.00 0.00 0.00 44 1012.8
20260507180319 58 71 1.0 7.0 0.00 0.00 0.00 52 1012.8
20260507175824 57 161 0.0 6.0 0.00 0.00 0.00 49 1012.9
20260507175333 57 155 2.0 6.0 0.00 0.00 0.00 44 1012.9
20260507174821 57 252 1.0 7.0 0.00 0.00 0.00 47 1012.9
20260507174324 57 123 2.0 7.0 0.00 0.00 0.00 44 1013.1
20260507173832 58 121 1.0 7.0 0.00 0.00 0.00 49 1013.1
20260507173317 57 173 1.0 4.0 0.00 0.00 0.00 43 1013.1
20260507172841 57 175 1.0 6.0 0.00 0.00 0.00 46 1013.3
20260507172325 57 119 2.0 6.0 0.00 0.00 0.00 43 1013.3
20260507171832 57 126 1.0 9.0 0.00 0.00 0.00 44 1013.3
20260507171335 57 132 3.0 9.0 0.00 0.00 0.00 44 1013.4
20260507170821 57 35 1.0 5.0 0.00 0.00 0.00 43 1013.4
20260507170329 57 73 1.0 5.0 0.00 0.00 0.00 42 1013.4
20260507165831 56 173 2.0 6.0 0.00 0.00 0.00 45 1013.4
20260507165321 56 84 2.0 7.0 0.00 0.00 0.00 44 1013.4
20260507164842 56 173 2.0 7.0 0.00 0.00 0.00 46 1013.4
20260507164324 56 146 4.0 7.0 0.00 0.00 0.00 42 1013.4
20260507163832 56 171 1.0 7.0 0.00 0.00 0.00 45 1013.4
20260507163322 57 27 2.0 5.0 0.00 0.00 0.00 47 1013.4
20260507162825 56 85 1.0 4.0 0.00 0.00 0.00 45 1013.4
20260507162331 56 120 1.0 5.0 0.00 0.00 0.00 49 1013.4
20260507161816 55 132 1.0 5.0 0.00 0.00 0.00 50 1013.4
20260507161321 55 109 1.0 5.0 0.00 0.00 0.00 47 1013.4
20260507160829 55 184 0.0 5.0 0.00 0.00 0.00 50 1013.4
20260507160323 55 88 0.0 5.0 0.00 0.00 0.00 48 1013.4
20260507155827 54 57 0.0 4.0 0.00 0.00 0.00 52 1013.4
20260507155331 54 343 0.0 7.0 0.00 0.00 0.00 52 1013.4
20260507154816 53 27 1.0 7.0 0.00 0.00 0.00 53 1013.4
20260507154320 53 240 1.0 7.0 0.00 0.00 0.00 50 1013.4
20260507153825 53 128 2.0 5.0 0.00 0.00 0.00 50 1013.4
20260507153330 53 63 0.0 5.0 0.00 0.00 0.00 53 1013.4
20260507152836 54 157 1.0 5.0 0.00 0.00 0.00 58 1013.3
20260507152341 53 32 3.0 5.0 0.00 0.00 0.00 53 1013.3
20260507151853 53 153 0.0 4.0 0.00 0.00 0.00 57 1013.3
20260507151334 53 38 0.0 6.0 0.00 0.00 0.00 55 1013.4
20260507150822 52 113 0.0 6.0 0.00 0.00 0.00 53 1013.4
20260507150331 52 38 2.0 6.0 0.00 0.00 0.00 52 1013.4
20260507145854 52 148 0.0 6.0 0.00 0.00 0.00 54 1013.5
20260507145341 52 150 1.0 6.0 0.00 0.00 0.00 54 1013.5
20260507144825 52 115 0.0 6.0 0.00 0.00 0.00 55 1013.5
20260507144346 52 132 0.0 4.0 0.00 0.00 0.00 56 1013.5
20260507143833 52 194 1.0 4.0 0.00 0.00 0.00 57 1013.5
20260507143338 51 45 1.0 4.0 0.00 0.00 0.00 63 1013.5
20260507142824 51 35 0.0 2.0 0.00 0.00 0.00 61 1013.5
20260507142348 51 36 0.0 2.0 0.00 0.00 0.00 64 1013.5
20260507141853 51 37 0.0 1.0 0.00 0.00 0.00 62 1013.5
20260507141354 51 38 0.0 3.0 0.00 0.00 0.00 64 1013.8
20260507140815 50 38 0.0 3.0 0.00 0.00 0.00 65 1013.8
20260507140343 50 36 0.0 3.0 0.00 0.00 0.00 66 1013.8
20260507135848 50 42 0.0 4.0 0.00 0.00 0.00 64 1013.9
20260507135332 50 42 0.0 4.0 0.00 0.00 0.00 65 1013.9
20260507134819 49 24 0.0 4.0 0.00 0.00 0.00 69 1013.9
20260507134321 49 24 1.0 4.0 0.00 0.00 0.00 68 1014.0
20260507133829 48 157 0.0 5.0 0.00 0.00 0.00 66 1014.0
20260507133339 48 112 1.0 5.0 0.00 0.00 0.00 69 1014.0
20260507132823 48 26 1.0 5.0 0.00 0.00 0.00 69 1014.1
20260507132332 48 154 0.0 3.0 0.00 0.00 0.00 71 1014.1
20260507131841 47 157 0.0 2.0 0.00 0.00 0.00 72 1014.1
20260507131326 47 67 0.0 3.0 0.00 0.00 0.00 75 1014.0
20260507130831 46 74 0.0 4.0 0.00 0.00 0.00 72 1014.0
20260507130315 46 84 1.0 4.0 0.00 0.00 0.00 74 1014.0
20260507125816 46 24 0.0 4.0 0.00 0.00 0.00 75 1014.0
20260507125324 45 43 1.0 4.0 0.00 0.00 0.00 75 1014.0
20260507124812 45 34 0.0 3.0 0.00 0.00 0.00 80 1014.0
20260507124358 45 31 0.0 2.0 0.00 0.00 0.00 81 1014.0
20260507123822 44 30 0.0 2.0 0.00 0.00 0.00 83 1014.0
20260507123332 44 25 0.0 2.0 0.00 0.00 0.00 87 1014.0
20260507122837 44 25 0.0 0.0 0.00 0.00 0.00 88 1014.0
20260507122322 43 25 0.0 0.0 0.00 0.00 0.00 89 1014.0
20260507121848 43 25 0.0 0.0 0.00 0.00 0.00 94 1014.0
20260507121330 42 25 0.0 0.0 0.00 0.00 0.00 95 1014.0
20260507120836 42 24 0.0 3.0 0.00 0.00 0.00 97 1014.0
20260507120319 41 16 0.0 3.0 0.00 0.00 0.00 99 1014.0
20260507115821 41 16 0.0 0.0 0.00 0.00 0.00 100 1014.0
20260507115326 40 16 0.0 0.0 0.00 0.00 0.00 100 1014.0
20260507114851 40 16 0.0 0.0 0.00 0.00 0.00 100 1014.0
20260507114333 40 16 0.0 0.0 0.00 0.00 0.00 100 1014.0
20260507113821 40 57 0.0 0.0 0.00 0.00 0.00 100 1014.0
20260507113330 39 57 0.0 0.0 0.00 0.00 0.00 100 1014.0
20260507112833 39 57 0.0 0.0 0.00 0.00 0.00 99 1013.5
20260507112342 39 57 0.0 0.0 0.00 0.00 0.00 99 1013.5
20260507111827 39 57 0.0 0.0 0.00 0.00 0.00 99 1013.5
20260507111332 39 57 0.0 0.0 0.00 0.00 0.00 99 1013.5
20260507110818 39 57 0.0 0.0 0.00 0.00 0.00 99 1013.5
20260507110346 39 57 0.0 0.0 0.00 0.00 0.00 99 1013.5
20260507105827 39 57 0.0 0.0 0.00 0.00 0.00 99 1013.5
20260507105311 39 57 0.0 0.0 0.00 0.00 0.00 99 1013.5
20260507104823 39 57 0.0 0.0 0.00 0.00 0.00 99 1013.5
20260507104326 39 57 0.0 0.0 0.00 0.00 0.00 99 1013.5
20260507103831 39 57 0.0 0.0 0.00 0.00 0.00 99 1013.5
20260507103321 39 57 0.0 0.0 0.00 0.00 0.00 99 1013.5
20260507102826 39 57 0.0 0.0 0.00 0.00 0.00 99 1013.4
20260507102331 39 57 0.0 0.0 0.00 0.00 0.00 99 1013.4
20260507101817 39 57 0.0 0.0 0.00 0.00 0.00 99 1013.4
20260507101320 39 57 0.0 0.0 0.00 0.00 0.00 99 1013.4
20260507100825 39 57 0.0 0.0 0.00 0.00 0.00 99 1013.4
20260507100330 38 57 0.0 0.0 0.00 0.00 0.00 99 1013.4
20260507095835 38 57 0.0 0.0 0.00 0.00 0.00 99 1013.2
20260507095318 38 57 0.0 0.0 0.00 0.00 0.00 99 1013.2
20260507094826 38 57 0.0 0.0 0.00 0.00 0.00 98 1013.2
20260507094331 38 57 0.0 0.0 0.00 0.00 0.00 98 1013.2
20260507093820 38 57 0.0 0.0 0.00 0.00 0.00 97 1013.2
20260507093345 38 57 0.0 0.0 0.00 0.00 0.00 97 1013.2
20260507092826 38 57 0.0 0.0 0.00 0.00 0.00 97 1013.1
20260507092351 38 57 0.0 0.0 0.00 0.00 0.00 97 1013.1
20260507091834 38 57 0.0 0.0 0.00 0.00 0.00 97 1013.1
20260507091334 38 57 0.0 0.0 0.00 0.00 0.00 97 1013.2
20260507090820 38 57 0.0 0.0 0.00 0.00 0.00 97 1013.2
20260507090326 38 57 0.0 0.0 0.00 0.00 0.00 97 1013.2
20260507085830 38 57 0.0 0.0 0.00 0.00 0.00 97 1013.1
20260507085338 39 57 0.0 0.0 0.00 0.00 0.00 96 1013.1
20260507084822 39 57 0.0 0.0 0.00 0.00 0.00 96 1013.1
20260507084323 39 57 0.0 0.0 0.00 0.00 0.00 96 1013.1
20260507083818 39 57 0.0 0.0 0.00 0.00 0.00 97 1013.1
20260507083323 39 57 0.0 0.0 0.00 0.00 0.00 97 1013.1
20260507082825 39 57 0.0 0.0 0.00 0.00 0.00 97 1013.2
20260507082350 39 57 0.0 0.0 0.00 0.00 0.00 96 1013.2
20260507081834 39 57 0.0 0.0 0.00 0.00 0.00 95 1013.2
20260507081336 39 57 0.0 0.0 0.00 0.00 0.00 95 1013.4
20260507080818 39 57 0.0 0.0 0.00 0.00 0.00 95 1013.4
20260507080343 39 57 0.0 0.0 0.00 0.00 0.00 95 1013.4
20260507075825 39 57 0.0 0.0 0.00 0.00 0.00 94 1013.4
20260507075330 39 57 0.0 0.0 0.00 0.00 0.00 94 1013.4
20260507074814 39 57 0.0 0.0 0.00 0.00 0.00 94 1013.4
20260507074341 39 57 0.0 0.0 0.00 0.00 0.00 94 1013.4
20260507073826 39 57 0.0 0.0 0.00 0.00 0.00 94 1013.4
20260507073315 39 57 0.0 0.0 0.00 0.00 0.00 94 1013.4
20260507072818 39 57 0.0 0.0 0.00 0.00 0.00 94 1013.4
20260507072326 39 57 0.0 0.0 0.00 0.00 0.00 93 1013.4
20260507071831 39 57 0.0 0.0 0.00 0.00 0.00 93 1013.4
20260507071354 39 57 0.0 0.0 0.00 0.00 0.00 93 1013.4
20260507070820 40 57 0.0 0.0 0.00 0.00 0.00 93 1013.4
20260507070323 40 57 0.0 0.0 0.00 0.00 0.00 92 1013.4
20260507065849 40 57 0.0 0.0 0.00 0.00 0.00 92 1013.5
20260507065333 40 57 0.0 0.0 0.00 0.00 0.00 93 1013.5
20260507064817 40 57 0.0 0.0 0.00 0.00 0.00 92 1013.5
20260507064318 40 57 0.0 0.0 0.00 0.00 0.00 92 1013.5
20260507063843 40 57 0.0 0.0 0.00 0.00 0.00 92 1013.5
20260507063328 40 57 0.0 0.0 0.00 0.00 0.00 92 1013.5
20260507062835 40 57 0.0 0.0 0.00 0.00 0.00 92 1013.5
20260507062341 40 57 0.0 0.0 0.00 0.00 0.00 92 1013.5
20260507061828 40 57 0.0 0.0 0.00 0.00 0.00 92 1013.5
20260507061331 41 57 0.0 0.0 0.00 0.00 0.00 92 1013.8
20260507060837 41 57 0.0 0.0 0.00 0.00 0.00 92 1013.8
20260507060323 41 57 0.0 0.0 0.00 0.00 0.00 92 1013.8
20260507055825 41 57 0.0 0.0 0.00 0.00 0.00 92 1014.0
20260507055330 41 57 0.0 0.0 0.00 0.00 0.00 92 1014.0
20260507054836 41 57 0.0 0.0 0.00 0.00 0.00 91 1014.0
20260507054337 41 57 0.0 0.0 0.00 0.00 0.00 91 1014.0
20260507053821 41 57 0.0 0.0 0.00 0.00 0.00 90 1014.0
20260507053326 41 57 0.0 0.0 0.00 0.00 0.00 90 1014.0
20260507052831 41 57 0.0 0.0 0.00 0.00 0.00 90 1014.0
20260507052335 41 57 0.0 0.0 0.00 0.00 0.00 90 1014.0
20260507051824 41 57 0.0 0.0 0.00 0.00 0.00 90 1014.0
20260507051329 42 57 0.0 0.0 0.00 0.00 0.00 90 1014.1
20260507050814 42 57 0.0 0.0 0.00 0.00 0.00 89 1014.1
20260507050343 42 57 0.0 0.0 0.00 0.00 0.00 88 1014.1
20260507045823 42 57 0.0 0.0 0.00 0.00 0.00 88 1014.1
20260507045327 42 57 0.0 0.0 0.00 0.00 0.00 88 1014.1
20260507044852 42 57 0.0 0.0 0.00 0.00 0.00 88 1014.1
20260507044333 42 57 0.0 0.0 0.00 0.00 0.00 87 1014.0
20260507043820 42 57 0.0 0.0 0.00 0.00 0.00 86 1014.0
20260507043327 43 57 0.0 0.0 0.00 0.00 0.00 86 1014.0
20260507042849 43 57 0.0 0.0 0.00 0.00 0.00 86 1014.0
20260507042318 43 57 0.0 0.0 0.00 0.00 0.00 86 1014.0
20260507041823 43 57 0.0 0.0 0.00 0.00 0.00 85 1014.0
20260507041330 43 57 0.0 0.0 0.00 0.00 0.00 84 1014.0
20260507040818 43 57 0.0 0.0 0.00 0.00 0.00 84 1014.0
20260507040326 44 57 0.0 0.0 0.00 0.00 0.00 83 1014.0
20260507035829 44 57 0.0 0.0 0.00 0.00 0.00 82 1014.1
20260507035333 44 57 0.0 0.0 0.00 0.00 0.00 83 1014.1
20260507034816 44 57 0.0 0.0 0.00 0.00 0.00 82 1014.1
20260507034358 44 57 0.0 0.0 0.00 0.00 0.00 82 1014.3
20260507033823 45 57 0.0 0.0 0.00 0.00 0.00 82 1014.3
20260507033331 45 57 0.0 0.0 0.00 0.00 0.00 82 1014.3
20260507032818 45 57 0.0 0.0 0.00 0.00 0.00 81 1014.4
20260507032329 45 57 0.0 0.0 0.00 0.00 0.00 80 1014.4
20260507031835 46 57 0.0 0.0 0.00 0.00 0.00 80 1014.4
20260507031317 46 57 0.0 0.0 0.00 0.00 0.00 79 1014.4
20260507030825 46 57 0.0 0.0 0.00 0.00 0.00 78 1014.4
20260507030331 46 57 0.0 0.0 0.00 0.00 0.00 78 1014.4
20260507025854 46 57 0.0 0.0 0.00 0.00 0.00 77 1014.4
20260507025319 47 57 0.0 0.0 0.00 0.00 0.00 77 1014.4
20260507024824 47 57 0.0 0.0 0.00 0.00 0.00 77 1014.4
20260507024325 47 57 0.0 0.0 0.00 0.00 0.00 77 1014.2
20260507023831 47 57 0.0 0.0 0.00 0.00 0.00 77 1014.2
20260507023321 48 57 0.0 0.0 0.00 0.00 0.00 78 1014.2
20260507022824 48 57 0.0 0.0 0.00 0.00 0.00 79 1014.0
20260507022329 48 57 0.0 0.0 0.00 0.00 0.00 78 1014.0
20260507021817 48 57 0.0 0.0 0.00 0.00 0.00 78 1014.0
20260507021324 48 57 0.0 0.0 0.00 0.00 0.00 80 1014.0
20260507020855 48 57 0.0 0.0 0.00 0.00 0.00 78 1014.0
20260507020320 48 57 0.0 0.0 0.00 0.00 0.00 77 1014.0
20260507015843 48 57 0.0 0.0 0.00 0.00 0.00 78 1013.9
20260507015326 48 57 0.0 0.0 0.00 0.00 0.00 79 1013.9
20260507014834 48 57 0.0 0.0 0.00 0.00 0.00 79 1013.9
20260507014336 48 57 0.0 0.0 0.00 0.00 0.00 79 1014.0
20260507013819 48 57 0.0 0.0 0.00 0.00 0.00 78 1014.0
20260507013329 48 57 0.0 0.0 0.00 0.00 0.00 80 1014.0
20260507012833 48 57 0.0 0.0 0.00 0.00 0.00 79 1013.8
20260507012324 48 57 0.0 0.0 0.00 0.00 0.00 80 1013.8
20260507011829 48 57 0.0 0.0 0.00 0.00 0.00 79 1013.8
20260507011333 48 57 0.0 0.0 0.00 0.00 0.00 79 1013.4
20260507010837 48 57 0.0 0.0 0.00 0.00 0.00 74 1013.4
20260507010320 49 57 0.0 0.0 0.00 0.00 0.00 76 1013.4
20260507005822 49 57 0.0 0.0 0.00 0.00 0.00 75 1013.1
20260507005327 49 57 0.0 0.0 0.00 0.00 0.00 72 1013.1
20260507004831 50 57 0.0 0.0 0.00 0.00 0.00 71 1013.1
20260507004336 50 57 0.0 0.0 0.00 0.00 0.00 70 1012.9
20260507003824 51 57 0.0 0.0 0.00 0.00 0.00 69 1012.9
20260507003332 51 57 0.0 0.0 0.00 0.00 0.00 67 1012.9
20260507002837 52 57 0.0 0.0 0.00 0.00 0.00 64 1012.9
20260507002322 52 57 0.0 0.0 0.00 0.00 0.00 65 1012.9
20260507001847 52 57 0.0 0.0 0.00 0.00 0.00 68 1012.9
20260507001354 52 57 0.0 0.0 0.00 0.00 0.00 67 1012.7
20260507000839 53 57 0.0 0.0 0.00 0.00 0.00 63 1012.7
20260507000321 53 57 0.0 0.0 0.00 0.00 0.00 61 1012.7
20260506235824 53 57 0.0 0.0 0.00 0.00 0.00 60 1012.8
20260506235330 53 57 0.0 0.0 0.00 0.00 0.00 59 1012.8
20260506234835 53 57 0.0 0.0 0.00 0.00 0.00 59 1012.8
20260506234358 53 57 0.0 2.0 0.00 0.00 0.00 59 1012.9
20260506233826 53 57 0.0 3.0 0.00 0.00 0.00 60 1012.9
20260506233332 53 40 0.0 3.0 0.00 0.00 0.00 59 1012.9
20260506232836 53 49 0.0 2.0 0.00 0.00 0.00 60 1013.1